Tracking 20232 objects as of 19-Jan-2020
HD Live streaming from Space Station
objects crossing your sky now

OV1-9

Track OV1-9 now!
10-day predictions
OV1-9 is classified as:


NORAD ID: 2610
Int'l Code: 1966-111A
Perigee: 481.6 km
Apogee: 4,545.9 km
Inclination: 99.1 °
Period: 138.9 minutes
Semi major axis: 8884 km
RCS: 0.6636 m2 (medium)
Launch date: December 11, 1966
Source: United States (US)
Launch site: AIR FORCE WESTERN TEST RANGE (AFWTR)
aabbcc
Your satellite tracking list
Your tracking list is empty




NASA's NSSDC Master Catalog

Two Line Element Set (TLE):
1  2610U 66111A   20018.23273938 +.00000021 +00000-0 +19332-4 0  9997
2  2610 099.1173 125.8742 2287225 346.9395 008.0776 10.36650101990107
Source of the keplerian elements: AFSPC